IGO967 VABB-VOML

Flight info

Callsign IGO967
Flight time N/A
Altitude 35000
Route IKATI W17 MML
Aircraft B738/M-SDE2E3FGHIRWXY/LB1

Departure

Time N/A
Airport Chhatrapati Shivaji Maharaj International Airport (VABB)

Arrival

Time 2026-05-04 18:41
Airport Mangaluru International Airport (VOML)
Time Latitude Longitude Altitude Speed Heading
2026-05-04 18:32 13.24245 74.97154 9966 ft 242 kts 170°
2026-05-04 18:32 13.23115 74.97340 9662 ft 241 kts 170°
2026-05-04 18:32 13.21864 74.97546 9356 ft 239 kts 170°
2026-05-04 18:32 13.20879 74.97707 9073 ft 239 kts 170°
2026-05-04 18:33 13.17658 74.98238 8231 ft 236 kts 170°
2026-05-04 18:33 13.16600 74.98412 7958 ft 235 kts 171°
2026-05-04 18:34 13.12301 74.99120 6672 ft 239 kts 171°
2026-05-04 18:35 13.11221 74.99297 6280 ft 243 kts 171°
2026-05-04 18:35 13.07461 74.99915 4575 ft 267 kts 171°
2026-05-04 18:36 13.06447 75.00082 3866 ft 280 kts 171°
2026-05-04 18:37 13.02099 74.99271 2484 ft 260 kts 223°
2026-05-04 18:37 13.01347 74.98363 2439 ft 237 kts 237°
2026-05-04 18:38 12.99955 74.96101 2382 ft 142 kts 239°
2026-05-04 18:38 12.99606 74.95528 2432 ft 144 kts 239°
2026-05-04 18:38 12.99212 74.94878 2306 ft 152 kts 239°
2026-05-04 18:38 12.98860 74.94296 1945 ft 150 kts 239°
2026-05-04 18:39 12.98231 74.93243 1170 ft 150 kts 239°
2026-05-04 18:39 12.97876 74.92650 730 ft 147 kts 239°
2026-05-04 18:39 12.97422 74.91900 630 ft 140 kts 239°
2026-05-04 18:40 12.97069 74.91318 708 ft 142 kts 237°
2026-05-04 18:40 12.96762 74.90839 741 ft 143 kts 239°
2026-05-04 18:40 12.96394 74.90189 557 ft 149 kts 241°
2026-05-04 18:41 12.95449 74.88658 312 ft 46 kts 239°
2026-05-04 18:41 12.95362 74.88511 311 ft 29 kts 238°
2026-05-04 18:41 12.95255 74.88327 313 ft 26 kts 235°
2026-05-04 18:42 12.95194 74.88235 313 ft 22 kts 239°
2026-05-04 18:42 12.95145 74.88148 314 ft 18 kts 243°
2026-05-04 18:42 12.95139 74.88071 314 ft 14 kts 301°
2026-05-04 18:42 12.95197 74.88018 313 ft 8 kts 320°
2026-05-04 18:43 12.95213 74.87978 312 ft 7 kts 260°
2026-05-04 18:43 12.95190 74.87931 313 ft 9 kts 239°
2026-05-04 18:43 12.95167 74.87890 314 ft 7 kts 240°
2026-05-04 18:43 12.95149 74.87856 314 ft 4 kts 241°
2026-05-04 18:44 12.95138 74.87836 314 ft 4 kts 243°
2026-05-04 18:44 12.95134 74.87828 314 ft 5 kts 243°
2026-05-04 18:44 12.95084 74.87735 313 ft 14 kts 240°
2026-05-04 18:44 12.95046 74.87664 311 ft 12 kts 242°
2026-05-04 18:45 12.95023 74.87578 305 ft 13 kts 276°
2026-05-04 18:45 12.95015 74.87516 302 ft 7 kts 241°
2026-05-04 18:45 12.94989 74.87469 298 ft 8 kts 241°
2026-05-04 18:45 12.94985 74.87407 292 ft 10 kts 316°
2026-05-04 18:46 12.95016 74.87386 290 ft 0 kts 328°